Location: Windsor
(43.2292°N, 89.3015°W)
Time: 05:30:07
(UTC+00:00)

First-Move - Pass Details

Date: 07 July 2022
Orbit: 572 x 658 km, 97.6° (Epoch: 11 August)

Event Time Altitude Azimuth Distance (km) Brightness Sun altitude
Rises 09:11:46 0° 24° (NNE) 2,976 ? -11.1°
Reaches altitude 10° 09:14:18 10° 37° (NE) 2,069 ? -10.8°
Maximum altitude 09:18:06 26° 94° (E) 1,290 ? -10.3°
Drops below altitude 10° 09:21:53 10° 152° (SSE) 2,068 ? -9.8°
Sets 09:24:24 0° 164° (SSE) 2,974 ? -9.5°
